Flag for U.S.A. Weather past 2 weeks in Fairfax, Virginia, U.S.A.

Now
70 °F

Passing clouds.


Feels Like: 68 °F
Forecast: 62 / 68 °F
Wind: 5 mph from Northeast

Location: Washington-Dulles International Airport

Current Time: Jun 2, 2015 at 12:04:45 AM

Latest Report: Jun 1, 2015 at 10:52 PM


Visibility: 10 mi

Pressure: 30.01 "Hg

Humidity: 87%

Dew point: 66 °F

Location of FairfaxLocation

Historic Weather in Fairfax — Graph

°F

Fairfax temperature yesterday

Maximum temperature yesterday: 85 °F (at 12:52 PM)
Minimum temperature yesterday: 70 °F (at 8:52 PM)
Average temperature yesterday: 76 °F

Past Weeks' High & Low Weather Summary

 TemperatureHumidityPressure
High89 °F (May 30, 5:52 PM)100% (May 28, 5:52 AM)30.47 "Hg (May 28, 5:52 AM)
Low43 °F (May 23, 4:52 AM)26% (May 23, 10:52 AM)29.83 "Hg (May 19, 6:52 PM)
Average71 °F66%30.12 "Hg
* Reported May 17 10:52 PM — Jun 1 10:52 PM, Fairfax, Weather by CustomWeather, © 2015

Note: Actual official high and low records may vary slightly from our data, if they occured in-between our weather recording intervals... More about our weather records

Advertising

Fairfax weather history for previous 24 hours

 ConditionsComfort  
Time TempWeatherWind HumidityBarometerVisibility
10:52 PM
Mon, Jun 1
70 °FPassing clouds.5 mph87%30.01 "Hg10 mi
9:52 PM70 °FMostly cloudy.10 mph87%30.01 "Hg10 mi
8:52 PM70 °FPartly sunny.7 mph84%30.00 "Hg10 mi
7:52 PM71 °FLight rain. Partly sunny.8 mph84%29.99 "Hg5 mi
6:52 PM71 °FThunderstorms. Broken clouds.17 mph78%29.97 "Hg10 mi
5:52 PM83 °FBroken clouds.3 mph63%29.91 "Hg10 mi
4:52 PM84 °FPartly sunny.No wind61%29.94 "Hg10 mi
3:52 PM85 °FThunderstorms. Broken clouds.5 mph55%29.94 "Hg10 mi
2:52 PM82 °FPartly sunny.9 mph56%29.97 "Hg10 mi
1:52 PM85 °FBroken clouds.7 mph53%29.98 "Hg10 mi
12:52 PM85 °FBroken clouds.6 mph53%29.99 "Hg10 mi
11:52 AM83 °FPartly sunny.No wind59%30.01 "Hg10 mi
10:52 AM80 °FBroken clouds.No wind67%30.01 "Hg10 mi
8:52 AM75 °FPartly sunny.6 mph79%30.03 "Hg10 mi
7:52 AM73 °FPartly sunny.3 mph84%30.03 "Hg10 mi
6:52 AM72 °FCloudy.3 mph87%30.01 "Hg10 mi
5:52 AM71 °FOvercast.3 mph87%30.00 "Hg10 mi
4:52 AM72 °FOvercast.5 mph87%29.99 "Hg10 mi
3:52 AM74 °FPassing clouds.7 mph88%29.98 "Hg10 mi
2:52 AM74 °FOvercast.10 mph88%29.99 "Hg10 mi
1:52 AM76 °FPartly cloudy.9 mph82%29.98 "Hg10 mi
12:52 AM77 °FPartly cloudy.8 mph79%29.98 "Hg10 mi
Weather by CustomWeather, © 2015

See weather overviewHow to use our weather pages